Flag for Malaysia Weather past 2 weeks in Seremban, Malaysia

Now
88 °F

Sprinkles. Broken clouds.


Feels Like: 102 °F
Forecast: 75 / 87 °F
Wind: 7 mph from Southwest

Location: Malacca

Current Time: Mar 31, 2015 at 3:14:06 PM

Latest Report: Mar 31, 2015 at 2:00 PM


Visibility: N/A

Pressure: 29.80 "Hg

Humidity: 75%

Dew point: 79 °F

Location of SerembanLocation

Historic Weather in Seremban — Graph

°F

Seremban temperature yesterday

Maximum temperature yesterday: 93 °F (at 3:00 PM)
Minimum temperature yesterday: 77 °F (at 12:00 AM)
Average temperature yesterday: 81 °F

Past Weeks' High & Low Weather Summary

 TemperatureHumidityPressure
High95 °F (Mar 26, 3:00 PM)100% (Mar 30, 6:00 PM)29.98 "Hg (Mar 30, 6:00 PM)
Low77 °F (Mar 17, 4:00 AM)50% (Mar 26, 4:00 PM)29.71 "Hg (Mar 18, 6:00 PM)
Average83 °F80%29.85 "Hg
* Reported Mar 16 2:00 PM — Mar 31 2:00 PM, Seremban, Weather by CustomWeather, © 2015

Note: Actual official high and low records may vary slightly from our data, if they occured in-between our weather recording intervals... More about our weather records

Advertising

Seremban weather history for previous 24 hours

 ConditionsComfort  
Time TempWeatherWind HumidityBarometerVisibility
2:00 PM
Tue, Mar 31
88 °FSprinkles. Broken clouds.7 mph75%29.80 "HgN/A
1:00 PM91 °FBroken clouds.5 mph63%29.86 "HgN/A
12:00 PM88 °FBroken clouds.5 mph70%29.89 "HgN/A
11:00 AM86 °FBroken clouds.7 mph79%29.89 "HgN/A
10:00 AM84 °FPartly sunny.6 mph84%29.89 "Hg6 mi
9:00 AM81 °FPartly sunny.3 mph89%29.89 "Hg4 mi
8:00 AM77 °FPartly sunny.No wind100%29.86 "Hg5 mi
7:00 AM77 °FPassing clouds.1 mph94%29.83 "Hg4 mi
6:00 AM77 °FPartly cloudy.1 mph94%29.83 "Hg6 mi
5:00 AM77 °FPassing clouds.No wind94%29.83 "HgN/A
4:00 AM77 °FPassing clouds.2 mph100%29.80 "HgN/A
2:00 AM79 °FPartly cloudy.1 mph94%29.86 "HgN/A
1:00 AM79 °FPartly cloudy.No wind94%29.89 "HgN/A
12:00 AM79 °FLight rain. Partly cloudy.No wind94%29.92 "Hg5 mi
11:00 PM
Mon, Mar 30
77 °FLight rain. Partly cloudy.1 mph100%29.92 "Hg5 mi
10:00 PM79 °FThunderstorms. Partly cloudy.5 mph94%29.89 "Hg5 mi
9:00 PM79 °FThunderstorms. Partly cloudy.2 mph94%29.86 "HgN/A
8:00 PM79 °FThunderstorms. Partly cloudy.3 mph94%29.83 "HgN/A
7:00 PM79 °FThunderstorms. Broken clouds.3 mph94%29.80 "HgN/A
6:00 PM77 °FThunderstorms. Broken clouds.7 mph100%29.77 "Hg5 mi
5:00 PM82 °FThunderstorms. Broken clouds.8 mph94%29.74 "Hg3 mi
4:00 PM88 °FBroken clouds.7 mph75%29.74 "HgN/A
3:00 PM93 °FBroken clouds.6 mph59%29.77 "HgN/A
Weather by CustomWeather, © 2015

See weather overviewHow to use our weather pages